EZY375 EGCC-EBBR

Flight info

Callsign EZY375
Flight time N/A
Altitude 23000
Route LISTO L612 HON L15 BIG Q70 KOK
Aircraft A320/M-SDE3FGHIRWY/LB1

Departure

Time 2026-05-04 16:52
Airport Manchester Airport (EGCC)

Arrival

Time N/A
Airport Brussels Airport (EBBR)
Time Latitude Longitude Altitude Speed Heading
2026-05-04 16:25 53.36763 -2.28769 255 ft 0 kts 315°
2026-05-04 16:37 53.36762 -2.28767 255 ft 2 kts 315°
2026-05-04 16:38 53.36727 -2.28707 255 ft 2 kts 315°
2026-05-04 16:39 53.36710 -2.28650 255 ft 4 kts 224°
2026-05-04 16:39 53.36671 -2.28713 255 ft 4 kts 224°
2026-05-04 16:40 53.36645 -2.28756 255 ft 0 kts 224°
2026-05-04 16:42 53.36517 -2.28650 255 ft 9 kts 134°
2026-05-04 16:43 53.36408 -2.28429 255 ft 13 kts 110°
2026-05-04 16:43 53.36305 -2.28217 255 ft 11 kts 135°
2026-05-04 16:43 53.36251 -2.28127 255 ft 13 kts 135°
2026-05-04 16:44 53.35920 -2.27726 255 ft 15 kts 179°
2026-05-04 16:45 53.35773 -2.27742 249 ft 9 kts 184°
2026-05-04 16:46 53.35643 -2.27597 245 ft 14 kts 80°
2026-05-04 16:46 53.35575 -2.27462 245 ft 0 kts 141°
2026-05-04 16:48 53.35500 -2.27360 248 ft 10 kts 141°
2026-05-04 16:48 53.35401 -2.27228 246 ft 22 kts 143°
2026-05-04 16:49 53.35157 -2.27477 236 ft 22 kts 231°
2026-05-04 16:49 53.34970 -2.27685 226 ft 12 kts 172°
2026-05-04 16:50 53.34953 -2.27681 225 ft 2 kts 172°
2026-05-04 16:50 53.34841 -2.27677 224 ft 8 kts 207°
2026-05-04 16:51 53.34813 -2.27724 223 ft 5 kts 231°
2026-05-04 16:51 53.34650 -2.28064 227 ft 75 kts 231°
2026-05-04 16:51 53.33521 -2.30435 645 ft 152 kts 233°
2026-05-04 16:52 53.32168 -2.33267 2040 ft 170 kts 234°
2026-05-04 16:52 53.31578 -2.35060 2414 ft 191 kts 261°
2026-05-04 16:53 53.32860 -2.39324 3231 ft 238 kts 307°